Regional Weather Roundup
Issued by NWS

Current Version | Previous Version | Text Only | Print | Product List | Glossary On
Versions: 1 2 3 4 5 6 7 8 9 10 11 12 13 14 15 16 17 18 19 20 21 22 23 24 25 26 27 28 29 30 31 32 33 34 35 36 37 38 39 40 41 42 43 44 45 46 47 48 49 50
000
ASUS44 KEWX 101011
RWRTX
SOUTH TEXAS REGIONAL WEATHER ROUNDUP
NATIONAL WEATHER SERVICE AUSTIN/SAN ANTONIO TX
400 AM CST SAT DEC 10 2016

NOTE: "FAIR" INDICATED FEW OR NO CLOUDS BELOW 12,000 FEET WITH NO
SIGNIFICANT WEATHER AND/OR OBSTRUCTIONS TO VISIBILITY.

* - THESE STATIONS ARE NOT NWS OR FAA STATIONS...AND ARE NOT SUBJECT
    TO NWS AND FAA QUALITY CONTROL.

TXZ171-172-183>190-101100-
TEXAS HILL COUNTRY AND EDWARDS PLATEAU

CITY           SKY/WX    TMP DP  RH WIND       PRES   REMARKS
JUNCTION       CLOUDY    33  26  75 CALM      30.39S
*LLANO         CLEAR    N/A N/A N/A SE3       30.45F
BURNET         CLOUDY    34  27  75 SE3       30.45F
*HORSESHOE BAY CLOUDY    38  27  64 SE5       30.44F WCI  35
*KERRVILLE     CLOUDY    33  31  90 SE3       30.41F
*FREDERICKSBRG CLOUDY    32  27  80 CALM      30.40F
*ROCKSPRINGS   CLOUDY    36  27  69 S7        30.38S WCI  30
*BOERNE STAGE  CLOUDY    34  30  86 CALM      30.45S
*CASTROVILLE   CLOUDY    42  30  64 CALM      30.47S
HONDO          CLOUDY    42  30  62 NE5       30.45F WCI  39
*UVALDE        CLOUDY    41  31  67 CALM      30.45S
DEL RIO        CLOUDY    43  32  65 SE8       30.40S WCI  38
LAUGHLIN AFB   CLOUDY    43  37  79 SE7       30.41R WCI  38
CARRIZO SPRGS  NOT AVBL
*EAGLE PASS    NOT AVBL
$$

TXZ173-191>194-202-209-217>225-228-101100-
CENTRAL AND SOUTH CENTRAL TEXAS

CITY           SKY/WX    TMP DP  RH WIND       PRES   REMARKS
GEORGETOWN     CLOUDY    37  28  70 CALM      30.47F
AUSTIN/BERGSTM MOCLDY    36  33  89 CALM      30.48S
AUSTIN/MABRY   CLOUDY    37  32  82 CALM      30.48F
*AUSTIN/EXEC   CLOUDY    36  32  87 CALM      30.48S
*LAGO VISTA    CLOUDY    38  30  72 SE3       30.45S
SAN MARCOS     CLOUDY    37  32  81 CALM      30.48S
NEW BRAUNFELS  CLOUDY    41  30  65 N5        30.46R WCI  38
RANDOLPH AFB   CLOUDY    40  33  76 N3        30.46S
PT SAN ANTONIO CLOUDY    43  25  49 E3        30.43S
SAN ANTONIO    CLOUDY    41  27  57 N3        30.46S
STINSON FIELD  CLOUDY    45  28  51 NE3       30.45F
*PLEASANTON    CLOUDY    44  28  53 CALM      30.47S
*LA GRANGE     CLOUDY    39  34  81 CALM      30.46F
*GIDDINGS      PTCLDY    33  31  91 CALM      30.51S
*GONZALES      NOT AVBL
$$

TXZ163>164-176>182-195>201-210>213-226-227-235-101100-
SOUTHEAST TEXAS

CITY           SKY/WX    TMP DP  RH WIND       PRES   REMARKS
COLLEGE STN    CLEAR     37  28  70 E3        30.49S
*BRYAN         NOT AVBL
*CALDWELL      NOT AVBL
*CROCKETT      CLEAR     32  25  74 E5        30.53F WCI  27
*BRENHAM       CLEAR     36  32  87 CALM      30.50R
HUNTSVILLE     CLEAR     34  28  79 E3        30.48F
CONROE         CLEAR     35  28  75 E6        30.49F WCI  30
HOUSTON BUSH   PTCLDY    36  30  79 NE6       30.49F WCI  31
HOUSTON HOBBY  CLEAR     40  31  70 E7        30.48F WCI  35
*HOUSTON SW AP PTCLDY    38  32  77 NE10      30.49F WCI  31
PEARLAND       CLEAR     43  32  65 NE7       30.49F WCI  39
HOUSTON HOOKS  CLEAR     39  30  70 E6        30.49F WCI  35
ELLINGTON FLD  CLEAR     41  30  65 NE6       30.50S WCI  37
SUGAR LAND     CLEAR     37  32  82 NE3       30.48F
*HOUSTON EXEC    N/A     36  32  87 E6        30.50S WCI  31
*CLEVELAND MUN CLEAR     35  30  83 CALM      30.51F
*WHARTON       PTCLDY    38  33  82 NE5       30.48F WCI  35
*COLUMBUS      NOT AVBL
*EAGLE LAKE    NOT AVBL
$$

TXZ214>216-236>238-101100-
THE UPPER TEXAS COAST

CITY           SKY/WX    TMP DP  RH WIND       PRES   REMARKS
*ORANGE        CLEAR     34  26  74 NE5       30.52S WCI  30
PORT ARTHUR    CLEAR     37  29  72 NE7       30.49F WCI  32
GALVESTON      CLEAR     46  36  68 NE16      30.48F WCI  39
ANGLETON       CLOUDY    45  34  65 N7        30.47S WCI  41
*BAY CITY      CLOUDY    45  36  71 NE6       30.46F WCI  42
PALACIOS       CLOUDY    45  35  68 NE12      30.45F WCI  39
$$

TXZ229>234-239>247-101100-
TEXAS COASTAL BEND AND RIO GRANDE PLAINS

CITY           SKY/WX    TMP DP  RH WIND       PRES   REMARKS
VICTORIA       CLOUDY    46  35  65 NE8       30.46F WCI  42
*BEEVILLE      CLOUDY    46  34  62 N7        30.44S WCI  42
ROCKPORT       CLOUDY    48  34  58 NE9       30.42F WCI  44
*PORT ARANSAS  CLOUDY    49  38  65 N14G20    30.41S WCI  44
*PORT LAVACA   CLOUDY    46  37  71 NE10      30.45F WCI  41
*INGLESIDE     CLOUDY    49  37  62 NE12G17   30.42S WCI  44
CORPUS CHRISTI CLOUDY    47  34  60 N12       30.42F WCI  42
CORPUS NAS     CLOUDY    49  41  74 N15       30.41F WCI  43
*ROBSTOWN      CLOUDY    47  38  69 N8        30.43S WCI  43
ALICE          CLOUDY    47  35  63 N7        30.43F WCI  44
KINGSVILLE NAS CLOUDY    47  39  74 N9        30.42F WCI  43
COTULLA        CLOUDY    47  29  49 NE3       30.45F
*FAITH RANCH   CLOUDY    45  34  65 CALM      30.43F
LAREDO         CLOUDY    46  30  53 NE3       30.44F
$$

TXZ248>255-101100-
DEEP SOUTH TEXAS

CITY           SKY/WX    TMP DP  RH WIND       PRES   REMARKS
BROWNSVILLE    CLOUDY    47  37  68 NW10      30.38S WCI  42
PORT ISABEL    CLOUDY    48  39  71 N13       30.37F WCI  43
*SOUTH PADRE     N/A     48  41  76 NW14G21   30.36F WCI  43
HARLINGEN      CLOUDY    47  37  68 NW10      30.39F WCI  42
*HEBBRONVILLE  CLOUDY    44  29  55 CALM      30.42F
MCALLEN        CLOUDY    47  36  65 NW8       30.42F WCI  43
*WESLACO       CLOUDY    46  35  66 NW10      30.40F WCI  40
FALFURRIAS     CLOUDY    46  33  59 N5        30.42S WCI  44
EDINBURG       CLOUDY    48  35  59 NW6       30.42F WCI  46
*ZAPATA        CLOUDY    46  31  57 CALM      30.43S
$$

TXZ213>215-236>238-242>244-246-247-251-254-255-101100-
CMAN STATIONS

STATION/POSITION TIME  TEMP    WIND        PRES    WAVE
                       AIR SEA DIR/SP/G            HT/PER
                 (UTC) (F)     (DEG/KT/KT) (MB)    (FT/S)
SABINE PASS      0948   40 56   40/  8/ 12 1033.6
SEA RIM ST PARK  0900   39      60/  7/ 10 1033.3
NORTH JETTY/GLS  0948   47 59   30/ 16/ 19   N/A
EAGLE POINT      0948   45 53   70/ 13/ 16 1032.3
MORGANS POINT    0948   43 57   60/ 11/ 13 1032.5
PORT O`CONNOR    0948   49      30/ 17/ 19 1030.0
PORT ARANSAS     0900   51 60   10/ 12/ 13 1029.6
MALAQUITE BEACH  0948   52 59  350/ 11/ 13 1029.8
BAFFIN BAY       0948   47 52  330/ 10/ 11 1029.6
PORT ISABEL      0948   48 59  340/ 12/ 19 1028.0
$$

GMZ080-GMZ150>470-101100-
OFFSHORE BUOY REPORTS

STATION/POSITION TIME  TEMP    WIND        PRES    WAVE
                       AIR SEA DIR/SP/G            HT/PER
                 (UTC) (F)     (DEG/KT/KT) (MB)    (FT/S)
20 E GALVESTON   0950   53 64   60/ 14/ 17 1031.5    3/ 5
90 E PT ARANSAS  0950   63 76   60/ 14/ 17 1029.3    6/ 8
35 NE PT MANSFLD 0950   66 75   70/ 14/ 19 1027.4    7/10
200 E PT ISABEL  0950   69 76   50/ 19/ 25 1027.0    8/ 8
$$




USA.gov is the U.S. government's official web portal to all federal, state and local government web resources and services.